Location: Boiro
(42.6475°N, 8.8834°W)
Time: 18:14:23
(UTC+01:00)

Explorer 7 - Pass Details

Date: 30 November 2021
Orbit: 483 x 674 km, 50.3° (Epoch: 20 January)

Event Time Altitude Azimuth Distance (km) Brightness Sun altitude
Rises 09:13:49 0° 247° (WSW) 2,770 10.1 3.7°
Reaches altitude 10° 09:16:09 10° 250° (WSW) 1,840 9.2 4.0°
Maximum altitude 09:20:18 65° 333° (NNW) 591 6.9 4.6°
Drops below altitude 10° 09:24:14 10° 55° (NE) 1,741 9.7 5.2°
Sets 09:26:23 0° 59° (ENE) 2,605 10.6 5.6°
